STARLINK-3084 (49136 NORAD) Tracking and Keplerian Element Data

This shows tracking and keplerian element data for the satellite.

Feedback or suggestion? Click here.




ElementValue
Catalog49136
NameSTARLINK-3084
Epoch Orbit697
Epoch Day300.91667824
Epoch Year2021
RAAN3.8054
Inclination70.0011
Eccentricity0.0003939
Argument of Perigee286.665
Mean Anonmoly139.5624
Mean Motion15.69745078
Decay Rate0.00025087
L11 49136U 21082G 21300.91667824 .00025087 00000-0 21131-3 0 9998
L22 49136 70.0011 3.8054 0003939 286.6650 139.5624 15.69745078 6975

Live tracking and technical data element details for STARLINK-3084 (NORAD 49136). STARLINK-3084 can be tracked NOW for your location showing map with azimuth and elevation plus other details from your city location.

Track the satellite on the map from your city or location and see movement details for azimuth, elevation, latitude, longitude, range, height, and movement on the map or in text.







IsCatalogInMostPopularTable: catalog: 49136, numindb: 6
Update: records affected: 1



GetName: 49136 STARLINK-3084

Hit Count: updated at: Thu, 28 Oct 2021 11:18:14 GMT